Weather in Starovelichkovskaya

Russia / Krasnodar Krai     45°25′46″N   38°43′51″E
temp.,
°C
wind,
m/s
gust,
m/s
humid.,
%
clouds,
%
prec.,
mm/h
press.,
hPa
HPBL,
m
18 may, wed
wed1800:00+12ssw357870 0.0 1015107
03:00+12s31081100 0.0 1014266
06:00+13ssw41284100 0.1 1012410
09:00+17ssw51068100 0.1 1011781
12:00+17ssw3868100 0.0 1010774
15:00+17wnw3769100 0.3 1010312
18:00+15wnw4878100 1.1 1010188
21:00+13sw3895100 4.1 1011356
19 may, thu
thu1900:00+12wnw4892100 0.1 1012348
03:00+11w51091100 0.2 1014485
06:00+10w388996 0.0 1016338
09:00+14wsw6864100 0.1 10171375
12:00+16wsw7950100 0.2 10172198
15:00+15w81059100 0.4 10181754
18:00+13wnw7107527 0.3 10181058
21:00+12w5977100 0.3 1020609
20 may, fri
fri2000:00+11wsw488377 0.3 1020264
03:00+10wsw47935 0.6 1021161
06:00+10sw4787100 0.0 1021152
09:00+17w5761100 0.1 1021979
12:00+18nw575697 1.1 10211752
15:00+19nw674411 1.1 10212278
18:00+17wnw466055 0.0 1020652
21:00+12w348124 0.0 102146
21 may, sat
sat2100:00+11sw4883100 0.0 1019125
03:00+10sw41182100 0.0 1018202
06:00+13ssw61374100 0.0 1017372
09:00+18sw91464100 0.0 10151418
12:00+20sw111653100 0.0 10141732
15:00+17sw121765100 0.1 10131246
18:00+15sw122060100 0.0 10111138
21:00+15sw11175988 0.3 1011987
22 may, sun
sun2200:00+15sw9146599 0.1 1011910
03:00+15wsw6117999 0.3 1011717
06:00+12nne129290 0.2 1011136
09:00+12ne2289100 0.2 1010206
12:00+12ese2395100 1.9 1008211
15:00+14wsw3990100 7.4 1007691
18:00+16wsw3877100 0.1 1005385
21:00+10ne4696100 0.3 1006176